• Processing (Info)

  • MPEC 2005-W86 : 2005 TJ174

    The following Minor Planet Electronic Circular may be linked-to from your own Web pages, but must not otherwise be redistributed electronically.

    A form allowing access to any MPEC is at the bottom of this page.


    Read MPEC 2005-W85 Read MPEC 2005-W87


    M.P.E.C. 2005-W86                                Issued 2005 Nov. 29, 13:09 UT
    
         The Minor Planet Electronic Circulars contain information on unusual
             minor planets and routine data on comets.  They are published
       on behalf of Commission 20 of the International Astronomical Union by the
              Minor Planet Center, Smithsonian Astrophysical Observatory,
                              Cambridge, MA 02138, U.S.A.
    
                      Supported in part by the Brinson Foundation
                      Supported in part by the TABASGO Foundation
                 Prepared using the Tamkin Foundation Computer Network
    
                                  MPC@CFA.HARVARD.EDU
              URL http://cfa-www.harvard.edu/iau/mpc.html  ISSN 1523-6714
    
                                      2005 TJ174
    
    Observations:
         K05TH4J* C2005 10 07.36966 06 49 27.32 +28 36 29.2          18.5   EW086704
         K05TH4J  C2005 10 07.38072 06 49 28.56 +28 36 28.5          19.1   EW086704
         K05TH4J  C2005 10 07.39178 06 49 29.86 +28 36 27.8          19.0   EW086704
         K05TH4J  C2005 11 01.38332 07 21 25.53 +27 54 21.1          18.8   EW086704
         K05TH4J  C2005 11 01.40940 07 21 26.38 +27 54 19.3          19.1   EW086704
         K05TH4J  C2005 11 01.42162 07 21 26.77 +27 54 18.8          19.3   EW086704
         K05TH4J  C2005 11 28.31149 07 16 28.57 +27 42 56.7          18.6   EW086704
         K05TH4J  C2005 11 28.32464 07 16 27.65 +27 42 58.2          18.8   EW086704
         K05TH4J  C2005 11 28.33779 07 16 26.89 +27 42 57.3          18.5   EW086704
         K05TH4J  C2005 11 29.23689 07 15 33.69 +27 42 58.3          17.7 R EW086651
         K05TH4J  C2005 11 29.24596 07 15 33.10 +27 43 00.3          17.5 R EW086651
         K05TH4J  C2005 11 29.24778 07 15 33.00 +27 43 00.1          17.5 R EW086651
         K05TH4J  C2005 11 29.41993 07 15 21.88 +27 43 00.9          18.4 V EW086G96
         K05TH4J  C2005 11 29.43458 07 15 20.91 +27 43 01.0          18.1 V EW086G96
         K05TH4J  C2005 11 29.44921 07 15 19.94 +27 43 01.0          18.3 V EW086G96
         K05TH4J  C2005 11 29.45663 07 15 19.38 +27 43 01.8          18.5 R EW086711
         K05TH4J  C2005 11 29.46133 07 15 19.07 +27 43 01.8          18.6 R EW086711
         K05TH4J  C2005 11 29.46387 07 15 18.97 +27 43 00.9          18.3 V EW086G96
         K05TH4J  C2005 11 29.46611 07 15 18.75 +27 43 01.8          18.5 R EW086711
    
    Observer details:
    651 Grasslands Observatory, Tucson.  Observer J. E. McGaha.  0.62-m f/5.1
        Newtonian reflector + CCD.
    704 Lincoln Laboratory ETS, New Mexico.  Observers M. Bezpalko, L. Manguso,
        D. Torres, R. Kracke, A. Milner, H. Love.  Measurers J. Stuart, R. Sayer,
        J. Evans, J. Kommers.  1.0-m f/2.15 reflector + CCD.
    711 McDonald Observatory.  Observer J. G. Ries.  0.76-m reflector + CCD
        + prime-focus corrector.
    G96 Mt. Lemmon Survey.  Observers S. M. Larson, A. D. Grauer.  Measurers
        E. C. Beshore, E. J. Christensen, G. J. Garradd, A. D. Grauer, R. E. Hill,
        R. A. Kowalski, S. M. Larson, R. H. McNaught.  1.5-m reflector + CCD.
    
    Orbital elements:
    2005 TJ174
    Epoch 2006 Mar. 6.0 TT = JDT 2453800.5                  MPC
    M  64.29655              (2000.0)            P               Q
    n   0.29473008     Peri.   55.62464     +0.99827598     -0.01419433
    a   2.2362468      Node   305.12444     -0.01192368     +0.90104155
    e   0.4543694      Incl.    3.99286     +0.05747074     +0.43350047
    P   3.34           H   16.5           G   0.15           U   7
    Residuals in seconds of arc
    051007 704  0.4-  0.2-    051128 704  0.7-  1.3+    051129 G96  0.0   0.5-
    051007 704  0.3-  0.0     051128 704  0.0   0.2+    051129 711  0.1+  0.1+
    051007 704  0.7+  0.2+    051129 651  0.2-  0.3-    051129 711  0.1+  0.2+
    051101 704  0.3+  0.0     051129 651  0.4-  1.5+    051129 G96  0.1-  0.6-
    051101 704  0.0   0.2-    051129 651  0.2-  1.2+    051129 711  0.0   0.2+
    051101 704  0.2-  0.1+    051129 G96  0.2+  0.6-
    051128 704  0.8+  0.0     051129 G96  0.1+  0.5-
    
    Ephemeris:
    2005 TJ174               a,e,i = 2.24, 0.45, 4                   q = 1.2202
    Date    TT    R. A. (2000) Decl.     Delta      r     Elong.  Phase     V
    2005 11 26    07 18.56   +27 42.8    0.819    1.676   136.1    24.1    18.3
    2005 12 06    07 07.59   +27 42.7    0.816    1.734   148.5    17.3    18.2
    2005 12 16    06 52.78   +27 36.2    0.832    1.793   161.7     9.9    18.0
    2005 12 26    06 36.63   +27 18.9    0.870    1.852   174.3     3.0    17.8
    2006 01 05    06 21.81   +26 51.0    0.934    1.910   169.8     5.2    18.2
    2006 01 15    06 10.41   +26 17.1    1.022    1.968   157.6    11.0    18.7
    2006 01 25    06 03.35   +25 42.9    1.132    2.024   145.9    15.8    19.2
    2006 02 04    06 00.71   +25 11.9    1.262    2.080   135.2    19.5    19.6
    2006 02 14    06 02.04   +24 45.3    1.406    2.135   125.4    22.1    20.0
    2006 02 24    06 06.68   +24 22.6    1.562    2.189   116.4    23.9    20.3
    2006 03 06    06 13.99   +24 02.2    1.727    2.242   108.0    24.9    20.6
    2006 03 16    06 23.43   +23 42.6    1.898    2.294   100.2    25.3    20.9
    2006 03 26    06 34.48   +23 21.9    2.073    2.344    92.8    25.2    21.1
    2006 04 05    06 46.79   +22 59.0    2.249    2.393    85.8    24.6    21.3
    2006 04 15    07 00.05   +22 32.6    2.424    2.440    79.0    23.8    21.5
    2006 04 25    07 13.98   +22 02.1    2.596    2.487    72.5    22.7    21.6
    2006 05 05    07 28.41   +21 26.9    2.764    2.531    66.2    21.4    21.8
    2006 05 15    07 43.16   +20 46.8    2.926    2.575    60.1    19.9    21.9
    
    Timothy B. Spahr             (C) Copyright 2005 MPC           M.P.E.C. 2005-W86
    

    Read MPEC 2005-W85 Read MPEC 2005-W87


    MPEC number:

    Enter an MPEC number in one of the following forms:

    • 1997-B01 (the full form)
    • J97B01 (the packed version of the full form)
    • B01 (the abbreviated form)